WetterOnline ( https://www.wetteronline.de )

Wetter aktuell Regen

Aktuelles Wetter: Zwiesel (613m)

6-stündlich | Neueste Meldungen
Ortszeit Temperatur Wetter
Fr, 09.12. 19:00 -0.4° C bedeckt
Fr, 09.12. 13:00 0.3° C bewölkt
Fr, 09.12. 7:00 -2.4° C bewölkt
Fr, 09.12. 1:00 -3.6° C leicht bewölkt
Do, 08.12. 19:00 -3.4° C leicht bewölkt
Do, 08.12. 13:00 0.6° C leicht bewölkt
Do, 08.12. 7:00 -2.2° C wolkig
Do, 08.12. 1:00 -0.2° C bewölkt
Ortszeit Temperatur Wetter
Fr, 09.12. 21:00 -0.6° C bedeckt
Fr, 09.12. 20:50 -0.6° C bedeckt
Fr, 09.12. 20:40 -0.6° C bedeckt
Fr, 09.12. 20:30 -0.5° C bewölkt
Fr, 09.12. 20:20 -0.5° C bewölkt
Fr, 09.12. 20:10 -0.6° C bewölkt
Fr, 09.12. 20:00 -0.5° C bewölkt
Fr, 09.12. 19:30 -0.5° C bedeckt
Fr, 09.12. 19:00 -0.4° C bedeckt
Fr, 09.12. 18:30 -0.5° C bedeckt
Fr, 09.12. 18:00 -0.5° C leicht bewölkt
Ortszeit Relative Feuchte Sichtweite
Fr, 09.12. 19:00 81% 35 km
Fr, 09.12. 13:00 78% 45 km
Fr, 09.12. 7:00 83% 45 km
Fr, 09.12. 1:00 91% 27 km
Do, 08.12. 19:00 96% 11 km
Do, 08.12. 13:00 77% 28 km
Do, 08.12. 7:00 96% 10 km
Do, 08.12. 1:00 91% 18 km
Ortszeit Relative Feuchte Sichtweite
Fr, 09.12. 21:00 83% 35 km
Fr, 09.12. 20:50 83% -
Fr, 09.12. 20:40 84% -
Fr, 09.12. 20:30 83% 35 km
Fr, 09.12. 20:20 83% -
Fr, 09.12. 20:10 83% -
Fr, 09.12. 20:00 83% 40 km
Fr, 09.12. 19:30 83% 40 km
Fr, 09.12. 19:00 81% 35 km
Fr, 09.12. 18:30 82% 35 km
Fr, 09.12. 18:00 84% 28 km
Ortszeit Niederschlagsmenge Niederschlagsart
Fr, 09.12. 19:00 0.1 l/m2 in 12 Std. Schnee
Fr, 09.12. 13:00 0.0 l/m2 in 6 Std. -
Fr, 09.12. 7:00 0.0 l/m2 in 12 Std. -
Fr, 09.12. 1:00 0.0 l/m2 in 6 Std. -
Do, 08.12. 19:00 0.0 l/m2 in 12 Std. -
Do, 08.12. 13:00 0.0 l/m2 in 6 Std. -
Do, 08.12. 7:00 0.1 l/m2 in 12 Std. -
Do, 08.12. 1:00 0.1 l/m2 in 6 Std. Schnee
Ortszeit Niederschlagsmenge Niederschlagsart
Fr, 09.12. 21:00 0.0 l/m2 in 1 Std. -
Fr, 09.12. 20:50 keine Meldung -
Fr, 09.12. 20:40 keine Meldung -
Fr, 09.12. 20:30 0.0 l/m2 in 1 Std. -
Fr, 09.12. 20:20 keine Meldung -
Fr, 09.12. 20:10 keine Meldung -
Fr, 09.12. 20:00 0.0 l/m2 in 1 Std. -
Fr, 09.12. 19:30 0.0 l/m2 in 1 Std. -
Fr, 09.12. 19:00 <0.05 l/m2 in 1 Std. Schnee
Fr, 09.12. 18:30 <0.05 l/m2 in 1 Std. Schnee
Fr, 09.12. 18:00 <0.05 l/m2 in 1 Std. Schnee
Ortszeit Stärke Spitze Richtung
km/h Bft. km/h Grad Sektor
Fr, 09.12. 19:00 13 3 24 350° N
Fr, 09.12. 13:00 7 2 20 10° N
Fr, 09.12. 7:00 7 2 14 30° NO
Fr, 09.12. 1:00 6 1 9 50° NO
Do, 08.12. 19:00 0 0 11 - -
Do, 08.12. 13:00 2 1 9 130° SO
Do, 08.12. 7:00 4 1 7 150° SO
Do, 08.12. 1:00 4 1 14 130° SO
Ortszeit Stärke Spitze Richtung
km/h Bft. km/h Grad Sektor
Fr, 09.12. 21:00 4 1 11 280° W
Fr, 09.12. 20:50 4 1 - 280° W
Fr, 09.12. 20:40 4 1 - 300° NW
Fr, 09.12. 20:30 4 1 7 340° N
Fr, 09.12. 20:20 4 1 - 340° N
Fr, 09.12. 20:10 4 1 - 10° N
Fr, 09.12. 20:00 7 2 18 20° N
Fr, 09.12. 19:30 7 2 18 30° NO
Fr, 09.12. 19:00 13 3 24 350° N
Fr, 09.12. 18:30 9 2 13 40° NO
Fr, 09.12. 18:00 7 2 18 360° N
Ortszeit Untergrenze Bedeckung Gattung
total tief tief mittel hoch
Fr, 09.12. 19:00 1500 m 8/8 8/8 - - -
Fr, 09.12. 13:00 2100 m 7/8 7/8 - - -
Fr, 09.12. 7:00 2400 m 7/8 7/8 - - -
Fr, 09.12. 1:00 1140 m 4/8 4/8 - - -
Do, 08.12. 19:00 1380 m 2/8 2/8 - - -
Do, 08.12. 13:00 450 m 3/8 3/8 - - -
Do, 08.12. 7:00 270 m 6/8 6/8 - - -
Do, 08.12. 1:00 330 m 7/8 7/8 - - -
Ortszeit Bedeckungsgrad in Achtel und Wolkenuntergrenze
Fr, 09.12. 21:00 3(930m) 7(1260m) 8(2400m)
Fr, 09.12. 20:50 3(930m) 7(1260m) 8(2400m)
Fr, 09.12. 20:40 8
Fr, 09.12. 20:30 1(690m) 7(840m) 7(1200m)
Fr, 09.12. 20:20 1(690m) 7(840m) 7(1200m)
Fr, 09.12. 20:10 7
Fr, 09.12. 20:00 1(720m) 3(1410m) 7(1500m)
Fr, 09.12. 19:30 7(1500m) 8(2400m)
Fr, 09.12. 19:00 7(1500m) 8(2400m)
Fr, 09.12. 18:30 1(1500m) 8(1500m)
Fr, 09.12. 18:00 2(1500m)
Ortszeit Luftdruck NN (hPa) Tendenz (hPa in 3 Std.)
Fr, 09.12. 19:00 1004 + 0,6
Fr, 09.12. 13:00 1004 - 1,8
Fr, 09.12. 7:00 1008 - 1,4
Fr, 09.12. 1:00 1011 - 0,5
Do, 08.12. 19:00 1012 - 0,1
Do, 08.12. 13:00 1011 - 1,5
Do, 08.12. 7:00 1013 - 0,7
Do, 08.12. 1:00 1015 - 0,9
Ortszeit Luftdruck NN (hPa) Tendenz (hPa in 3 Std.)
Fr, 09.12. 21:00 1005 + 1,2
Fr, 09.12. 20:50 1005 keine Meldung
Fr, 09.12. 20:40 1005 keine Meldung
Fr, 09.12. 20:30 1004 + 1,1
Fr, 09.12. 20:20 1004 keine Meldung
Fr, 09.12. 20:10 1004 keine Meldung
Fr, 09.12. 20:00 1004 + 1,2
Fr, 09.12. 19:30 1004 + 1,0
Fr, 09.12. 19:00 1004 + 0,6
Fr, 09.12. 18:30 1003 + 0,1
Fr, 09.12. 18:00 1003 + 0,3
Ortszeit Schneehöhe (cm)
Fr, 09.12. 19:00 0
Fr, 09.12. 13:00 0
Fr, 09.12. 7:00 0
Fr, 09.12. 1:00 0
Do, 08.12. 19:00 0
Do, 08.12. 13:00 0
Do, 08.12. 7:00 0
Do, 08.12. 1:00 0
Ortszeit Schneehöhe (cm)
Fr, 09.12. 21:00 0
Fr, 09.12. 20:50 0
Fr, 09.12. 20:40 0
Fr, 09.12. 20:30 0
Fr, 09.12. 20:20 0
Fr, 09.12. 20:10 0
Fr, 09.12. 20:00 0
Fr, 09.12. 19:30 0
Fr, 09.12. 19:00 0
Fr, 09.12. 18:30 0
Fr, 09.12. 18:00 0
Link zu dieser Seite / Seite empfehlen

Das Wetter in ...